Main page
METAR-TAF:

METAR-TAF

Airports :

Spadeadam, England

RAF Spadeadam

latitude: 55-03N, longitude: 002-33W, elevation: 325 m

Current weather observation

The report was made 1 hour and 19 minutes ago, at 22:50 UTC
Wind 5 kt from the West/Southwest
Temperature 8°C
Humidity 100%
Pressure 1016 hPa
Visibility 10 km or more

METAR: EGOM 192250Z AUTO 25005KT 9999 BKN150/// 08/08 Q1016

Time: 01:09 (00:09 UTC)


TAF: missing

Weather observations and forecasts of more than 4000 airports (METAR and TAF reports).

The available stations are represented by yellow and red dots on the map.

Hover mouse over dot to see the name of the station.

Then click to see weather observations and forecasts.

To change the map : click on the green buttons with a black cross to zoom in, on the green button with a dash to zoom out, or on the green arrows for adjacent maps.


METAR-TAF: